Weather History for Lago Vista, TX

Change the Weather History Date:

Saturday, August 24, 2013

  Actual Average (KATT) Record (KATT)
Temperature  
Mean Temperature 88 °F 85 °F  
Max Temperature 98 °F 96 °F 107 °F (2010)
Min Temperature 77 °F 74 °F 64 °F (1966)
Degree Days  
Heating Degree Days 0 0  
Month to date heating degree days 0  
Since 1 June heating degree days 0  
Since 1 July heating degree days 0  
Cooling Degree Days 22 20  
Month to date cooling degree days 503  
Year to date cooling degree days 2252  
Since 1 June cooling degree days 1639  
Growing Degree Days 38 (Base 50)    
Moisture  
Dew Point 64 °F    
Average Humidity 49    
Maximum Humidity 78    
Minimum Humidity 27    
Precipitation  
Precipitation 0.00 in 0.09 in 3.02 in (1937)
Month to date precipitation 1.65  
Year to date precipitation 21.39  
Snow  
Snow 0.00 in - - ()
Month to date snowfall  
Since 1 June snowfall  
Since 1 July snowfall  
Snow Depth -    
Sea Level Pressure  
Sea Level Pressure 30.04 in    
Wind  
Wind Speed 5 mph (SE)    
Max Wind Speed 14 mph    
Max Gust Speed 21 mph    
Visibility 10 miles    
Events Rain    
T = Trace of Precipitation, MM = Missing Value Source: NWS Daily Summary

Daily Weather History Graph

Daily Weather History Graph

Search for Another Location

Airport:

Trip Planner

Search our weather history database for the weather conditions in past years. The results will help you decide how hot, cold, wet, or windy it might be!

Date:

Astronomy

Aug. 24, 2013 Rise Set
Actual Time 7:04 AM CDT 8:03 PM CDT
Civil Twilight 6:39 AM CDT 8:28 PM CDT
Nautical Twilight 6:09 AM CDT 8:57 PM CDT
Astronomical Twilight 5:39 AM CDT 9:27 PM CDT
Moon 10:21 PM CDT (8/24) 10:44 AM CDT (8/24)
Length of Visible Light 13h 49m
Length of Day
12h 59m
Waning Gibbous, 84% of the Moon is Illuminated
Aug 24
Waning Gibbous
Aug 28
Last Quarter
Sep 5
New
Sep 12
First Quarter
Sep 19
Full

Hourly Weather History & Observations

Time (CDT) Temp. Heat Index Dew Point Humidity Pressure Visibility Wind Dir Wind Speed Gust Speed Precip Events Conditions
12:15 AM 82.4 °F 83.9 °F 64.4 °F 54% 30.00 in 10.0 mi SE 5.8 mph - N/A   Clear
12:35 AM 82.4 °F 83.9 °F 64.4 °F 54% 30.00 in 10.0 mi SSE 6.9 mph - N/A   Clear
12:55 AM 82.4 °F 84.6 °F 66.2 °F 58% 30.01 in 10.0 mi SSE 4.6 mph - N/A   Clear
1:15 AM 80.6 °F 82.7 °F 66.2 °F 61% 30.02 in 10.0 mi South 4.6 mph - N/A   Clear
1:35 AM 80.6 °F 82.7 °F 66.2 °F 61% 30.02 in 10.0 mi South 4.6 mph - N/A   Clear
1:55 AM 80.6 °F 82.7 °F 66.2 °F 61% 30.02 in 10.0 mi South 4.6 mph - N/A   Clear
2:15 AM 80.6 °F 82.7 °F 66.2 °F 61% 30.02 in 10.0 mi South 4.6 mph - N/A   Scattered Clouds
2:35 AM 80.6 °F 82.7 °F 66.2 °F 61% 30.02 in 10.0 mi South 4.6 mph - N/A   Scattered Clouds
2:55 AM 80.6 °F 82.7 °F 66.2 °F 61% 30.02 in 10.0 mi SSW 5.8 mph - N/A   Clear
3:15 AM 80.6 °F 83.2 °F 68.0 °F 65% 30.02 in 10.0 mi SSW 3.5 mph - N/A   Clear
3:35 AM 80.6 °F 83.2 °F 68.0 °F 65% 30.03 in 10.0 mi SSW 4.6 mph - N/A   Clear
3:55 AM 80.6 °F 83.2 °F 68.0 °F 65% 30.03 in 10.0 mi SW 4.6 mph - N/A   Clear
4:15 AM 78.8 °F - 68.0 °F 69% 30.03 in 10.0 mi WSW 4.6 mph - N/A   Clear
4:35 AM 78.8 °F - 68.0 °F 69% 30.02 in 10.0 mi WSW 5.8 mph - N/A   Scattered Clouds
4:55 AM 78.8 °F - 68.0 °F 69% 30.03 in 10.0 mi SW 5.8 mph - N/A   Clear
5:15 AM 78.8 °F - 68.0 °F 69% 30.03 in 10.0 mi WSW 4.6 mph - N/A   Mostly Cloudy
5:35 AM 78.8 °F - 68.0 °F 69% 30.03 in 10.0 mi West 3.5 mph - N/A   Mostly Cloudy
5:55 AM 78.8 °F - 68.0 °F 69% 30.03 in 10.0 mi WSW 3.5 mph - N/A   Mostly Cloudy
6:15 AM 78.8 °F - 68.0 °F 69% 30.04 in 10.0 mi West 4.6 mph - N/A   Overcast
6:35 AM 77.0 °F - 69.8 °F 78% 30.04 in 10.0 mi Calm Calm - N/A Rain Light Rain
6:55 AM 78.8 °F - 69.8 °F 74% 30.05 in 10.0 mi Calm Calm - N/A   Overcast
7:15 AM 78.8 °F - 68.0 °F 69% 30.06 in 10.0 mi Calm Calm - N/A   Overcast
7:35 AM 78.8 °F - 68.0 °F 69% 30.06 in 10.0 mi West 3.5 mph - N/A   Overcast
7:55 AM 78.8 °F - 68.0 °F 69% 30.07 in 10.0 mi West 3.5 mph - N/A   Mostly Cloudy
8:15 AM 78.8 °F - 68.0 °F 69% 30.08 in 10.0 mi WNW 3.5 mph - N/A   Scattered Clouds
8:35 AM 80.6 °F 82.7 °F 66.2 °F 61% 30.08 in 10.0 mi WNW 3.5 mph - N/A   Scattered Clouds
8:55 AM 82.4 °F 84.6 °F 66.2 °F 58% 30.08 in 10.0 mi Calm Calm - N/A   Clear
9:15 AM 82.4 °F 84.6 °F 66.2 °F 58% 30.09 in 10.0 mi Calm Calm - N/A   Clear
9:35 AM 82.4 °F 85.4 °F 68.0 °F 62% 30.09 in 10.0 mi Calm Calm - N/A   Clear
9:55 AM 86.0 °F 88.2 °F 66.2 °F 51% 30.09 in 10.0 mi Calm Calm - N/A   Scattered Clouds
10:15 AM 87.8 °F 89.4 °F 64.4 °F 46% 30.10 in 10.0 mi Calm Calm - N/A   Mostly Cloudy
10:35 AM 87.8 °F 88.5 °F 62.6 °F 43% 30.10 in 10.0 mi Calm Calm - N/A   Scattered Clouds
10:55 AM 87.8 °F 88.5 °F 62.6 °F 43% 30.10 in 10.0 mi WSW 4.6 mph - N/A   Clear
11:15 AM 87.8 °F 88.5 °F 62.6 °F 43% 30.10 in 10.0 mi Calm Calm - N/A   Clear
11:35 AM 89.6 °F 90.1 °F 62.6 °F 40% 30.09 in 10.0 mi Calm Calm - N/A   Scattered Clouds
11:55 AM 91.4 °F 92.1 °F 62.6 °F 38% 30.09 in 10.0 mi NNE 5.8 mph - N/A   Scattered Clouds
12:15 PM 91.4 °F 92.1 °F 62.6 °F 38% 30.09 in 10.0 mi ENE 9.2 mph - N/A   Clear
12:35 PM 93.2 °F 94.1 °F 62.6 °F 36% 30.08 in 10.0 mi ENE 6.9 mph - N/A   Clear
12:55 PM 95.0 °F 96.0 °F 62.6 °F 34% 30.07 in 10.0 mi East 8.1 mph 18.4 mph N/A   Scattered Clouds
1:15 PM 95.0 °F 96.0 °F 62.6 °F 34% 30.07 in 10.0 mi East 5.8 mph - N/A   Scattered Clouds
1:35 PM 96.8 °F 98.0 °F 62.6 °F 32% 30.07 in 10.0 mi ENE 5.8 mph - N/A   Scattered Clouds
1:55 PM 96.8 °F 97.1 °F 60.8 °F 30% 30.05 in 10.0 mi East 4.6 mph - N/A   Scattered Clouds
2:15 PM 96.8 °F 97.1 °F 60.8 °F 30% 30.05 in 10.0 mi East 12.7 mph 17.3 mph N/A   Scattered Clouds
2:35 PM 96.8 °F 97.1 °F 60.8 °F 30% 30.04 in 10.0 mi ENE 10.4 mph - N/A   Scattered Clouds
2:55 PM 95.0 °F 95.2 °F 60.8 °F 32% 30.04 in 10.0 mi ENE 6.9 mph 17.3 mph N/A   Mostly Cloudy
3:15 PM 95.0 °F 95.2 °F 60.8 °F 32% 30.02 in 10.0 mi ENE 4.6 mph - N/A   Scattered Clouds
3:35 PM 96.8 °F 97.1 °F 60.8 °F 30% 30.01 in 10.0 mi East 6.9 mph 16.1 mph N/A   Scattered Clouds
3:55 PM 98.6 °F 98.5 °F 59.0 °F 27% 30.01 in 10.0 mi East 12.7 mph 17.3 mph N/A   Scattered Clouds
4:15 PM 98.6 °F 99.4 °F 60.8 °F 29% 30.00 in 10.0 mi East 5.8 mph 17.3 mph N/A   Scattered Clouds
4:35 PM 96.8 °F 96.2 °F 59.0 °F 28% 29.99 in 10.0 mi East 5.8 mph - N/A   Scattered Clouds
4:55 PM 95.0 °F 95.2 °F 60.8 °F 32% 29.99 in 10.0 mi ESE 11.5 mph 20.7 mph N/A   Mostly Cloudy
5:15 PM 96.8 °F 97.1 °F 60.8 °F 30% 29.99 in 10.0 mi East 13.8 mph 19.6 mph N/A   Scattered Clouds
5:35 PM 96.8 °F 97.1 °F 60.8 °F 30% 29.99 in 10.0 mi East 13.8 mph 18.4 mph N/A   Clear
5:55 PM 95.0 °F 93.7 °F 57.2 °F 28% 29.98 in 10.0 mi ENE 12.7 mph 19.6 mph N/A   Clear
6:15 PM 95.0 °F 94.4 °F 59.0 °F 30% 29.99 in 10.0 mi East 8.1 mph 17.3 mph N/A   Clear
6:35 PM 95.0 °F 94.4 °F 59.0 °F 30% 29.98 in 10.0 mi East 9.2 mph - N/A   Clear
6:55 PM 93.2 °F 93.3 °F 60.8 °F 34% 29.98 in 10.0 mi ENE 10.4 mph - N/A   Clear
7:15 PM 91.4 °F 91.4 °F 60.8 °F 36% 29.98 in 10.0 mi East 8.1 mph - N/A   Clear
7:35 PM 91.4 °F 91.4 °F 60.8 °F 36% 29.98 in 10.0 mi East 6.9 mph - N/A   Clear
7:55 PM 89.6 °F 89.5 °F 60.8 °F 38% 29.99 in 10.0 mi East 5.8 mph - N/A   Clear
8:15 PM 89.6 °F 89.5 °F 60.8 °F 38% 30.00 in 10.0 mi East 5.8 mph - N/A   Scattered Clouds
8:35 PM 87.8 °F 88.5 °F 62.6 °F 43% 30.00 in 10.0 mi East 6.9 mph - N/A   Clear
8:55 PM 87.8 °F 88.5 °F 62.6 °F 43% 30.01 in 10.0 mi East 4.6 mph - N/A   Clear
9:15 PM 87.8 °F 88.5 °F 62.6 °F 43% 30.02 in 10.0 mi ESE 5.8 mph - N/A   Clear
9:35 PM 86.0 °F 87.3 °F 64.4 °F 48% 30.02 in 10.0 mi Calm Calm - N/A   Clear
9:55 PM 86.0 °F 87.3 °F 64.4 °F 48% 30.03 in 10.0 mi ESE 4.6 mph - N/A   Scattered Clouds
10:15 PM 84.2 °F 85.6 °F 64.4 °F 51% 30.03 in 10.0 mi East 3.5 mph - N/A   Clear
10:35 PM 84.2 °F 85.6 °F 64.4 °F 51% 30.04 in 10.0 mi Calm Calm - N/A   Scattered Clouds
10:55 PM 86.0 °F 87.3 °F 64.4 °F 48% 30.05 in 10.0 mi SSE 8.1 mph - N/A   Mostly Cloudy
11:15 PM 86.0 °F 87.3 °F 64.4 °F 48% 30.06 in 10.0 mi South 5.8 mph - N/A   Overcast
11:35 PM 84.2 °F 85.6 °F 64.4 °F 51% 30.06 in 10.0 mi SSE 3.5 mph - N/A   Mostly Cloudy
11:55 PM 82.4 °F 84.6 °F 66.2 °F 58% 30.07 in 10.0 mi SSE 4.6 mph - N/A   Clear